Regional Weather Roundup
Issued by NWS Goodland, KS

Home | Current Version | Previous Version | Text Only | Print | Product List | Glossary Off
Versions: 1 2 3 4 5 6 7 8 9 10 11 12 13 14 15 16 17 18 19 20 21 22 23 24 25 26 27 28 29 30 31 32 33 34 35 36 37 38 39 40 41 42 43 44 45 46 47 48 49 50

000
ASUS43 KGLD 310959
RWRGLD

GOODLAND FORECAST AREA HOURLY WEATHER ROUNDUP
NATIONAL WEATHER SERVICE GOODLAND KS
400 AM MDT WED AUG 31 2016

...OFFICIAL OBSERVATIONS...

CITY           SKY/WX    TMP DP  RH WIND       PRES   REMARKS
GOODLAND KS    FOG       64  63  96 SE7       30.24R VSB 1/2
HILL CITY KS   PTCLDY    64  63  96 CALM      30.19
IMPERIAL NEB   TSTM      66  64  93 CALM      30.24S FOG
MCCOOK NEB     CLOUDY    65  63  93 NE5       30.21R
AKRON CO       CLEAR     56  55  97 SE3       30.27F
BURLINGTON CO  CLOUDY    57  54  89 SW5       30.25F
LIMON CO       CLEAR     48  47  96 CALM      30.31S
$$

...UNOFFICIAL OBSERVATIONS...

CITY           SKY/WX    TMP DP  RH WIND       PRES   REMARKS
COLBY KS       CLOUDY    64  64 100 CALM      30.24S FOG
LENORA KS        N/A     63  32  31 MISG        N/A
NORTON KS      PTCLDY    66  63  88 CALM      30.19
SHARON SPRINGS   N/A     62  60  95 CALM        N/A
TRENTON NEB      N/A     66  32  28 MISG        N/A
KIT CARSON CO    N/A     59  54  84 CALM        N/A
YUMA CO          N/A     59  58  95 CALM        N/A
$$




USA.gov is the U.S. government's official web portal to all federal, state and local government web resources and services.